Weather History for LGTS - October, 2011

Change the Weather History Date:

Thursday, October 6, 2011

  Actual Average Record
Temperature  
Mean Temperature 68 °F -  
Max Temperature 80 °F 68 °F 84 °F (2001)
Min Temperature 55 °F 50 °F 44 °F (2008)
Cooling Degree Days 2    
Growing Degree Days 18 (Base 50)    
Moisture  
Dew Point 51 °F    
Average Humidity 58    
Maximum Humidity 77    
Minimum Humidity 32    
Precipitation  
Precipitation 0.00 in 0.06 in - ()
Sea Level Pressure  
Sea Level Pressure 30.10 in    
Wind  
Wind Speed 6 mph ()    
Max Wind Speed 10 mph    
Max Gust Speed -    
Visibility 6.2 miles    
Events      
Averages and records for this station are not official NWS values.
T = Trace of Precipitation, MM = Missing Value Source: Averaged Metar Reports

Daily Weather History Graph

Daily Weather History Graph

Search for Another Location

Airport or City:

Trip Planner

Search our weather history database for the weather conditions in past years. The results will help you decide how hot, cold, wet, or windy it might be!

Date:

Astronomy

Oct. 06, 2011 Rise Set
Actual Time 7:29 AM EEST 7:03 PM EEST
Civil Twilight 7:01 AM EEST 7:30 PM EEST
Nautical Twilight 6:30 AM EEST 8:01 PM EEST
Astronomical Twilight 5:58 AM EEST 8:33 PM EEST
Moon 4:07 PM EEST (10/6) 1:57 AM EEST (10/6)
Length of Visible Light 12h 28m
Length of Day
11h 33m
Waxing Gibbous, 72% of the Moon is Illuminated
Oct 6
Waxing Gibbous
Oct 12
Full
Oct 20
Last Quarter
Oct 26
New
Nov 2
First Quarter

Hourly Weather History & Observations

Time (EEST) Temp. Dew Point Humidity Pressure Visibility Wind Dir Wind Speed Gust Speed Precip Events Conditions
12:20 AM 60.8 °F 50.0 °F 68% 30.12 in - ESE 8.1 mph - N/A   Clear
12:50 AM 60.8 °F 48.2 °F 63% 30.12 in - East 6.9 mph - N/A   Clear
1:20 AM 60.8 °F 48.2 °F 63% 30.12 in - ESE 6.9 mph - N/A   Clear
1:50 AM 60.8 °F 48.2 °F 63% 30.12 in - ESE 8.1 mph - N/A   Clear
2:20 AM 59.0 °F 48.2 °F 67% 30.12 in - East 8.1 mph - N/A   Clear
2:50 AM 59.0 °F 48.2 °F 67% 30.12 in - ESE 8.1 mph - N/A   Clear
3:00 AM 59 °F 48 °F 58% 30.14 in 6 mi ESE 8.1 mph - -  
3:20 AM 59.0 °F 48.2 °F 67% 30.12 in - East 6.9 mph - N/A   Clear
3:50 AM 59.0 °F 48.2 °F 67% 30.12 in - East 6.9 mph - N/A   Clear
4:20 AM 59.0 °F 48.2 °F 67% 30.12 in - ESE 6.9 mph - N/A   Clear
4:50 AM 57.2 °F 48.2 °F 72% 30.12 in - ESE 4.6 mph - N/A   Clear
5:20 AM 57.2 °F 48.2 °F 72% 30.12 in - ESE 4.6 mph - N/A   Clear
5:50 AM 57.2 °F 48.2 °F 72% 30.12 in - East 5.8 mph - N/A   Clear
6:20 AM 57.2 °F 48.2 °F 72% 30.12 in - ESE 4.6 mph - N/A   Clear
6:50 AM 57.2 °F 48.2 °F 72% 30.12 in - ESE 5.8 mph - N/A   Clear
7:20 AM 55.4 °F 48.2 °F 77% 30.12 in - ESE 5.8 mph - N/A   Clear
7:50 AM 55.4 °F 46.4 °F 72% 30.12 in - ESE 5.8 mph - N/A   Clear
8:20 AM 57.2 °F 48.2 °F 72% 30.12 in - ESE 4.6 mph - N/A   Clear
8:50 AM 57.2 °F 48.2 °F 72% 30.12 in - ESE 3.5 mph - N/A   Clear
9:00 AM 58 °F 48 °F 61% 30.15 in 6 mi ESE 3.5 mph - -  
9:20 AM 60.8 °F 51.8 °F 72% 30.12 in - Calm Calm - N/A   Clear
9:50 AM 64.4 °F 51.8 °F 64% 30.15 in - Calm Calm - N/A   Clear
10:20 AM 66.2 °F 51.8 °F 60% 30.15 in - Variable 3.5 mph - N/A   Clear
10:50 AM 66.2 °F 57.2 °F 73% 30.15 in - WNW 4.6 mph - N/A   Clear
11:20 AM 68.0 °F 55.4 °F 64% 30.15 in - West 3.5 mph - N/A   Clear
11:50 AM 69.8 °F 53.6 °F 56% 30.15 in - West 2.3 mph - N/A   Clear
12:20 PM 71.6 °F 53.6 °F 53% 30.15 in - WNW 5.8 mph - N/A   Clear
12:50 PM 73.4 °F 51.8 °F 47% 30.12 in 6.2 mi WNW 4.6 mph - N/A   Partly Cloudy
1:20 PM 73.4 °F 50.0 °F 44% 30.12 in 6.2 mi WNW 4.6 mph - N/A   Partly Cloudy
1:50 PM 75.2 °F 51.8 °F 44% 30.12 in 6.2 mi WNW 4.6 mph - N/A   Partly Cloudy
2:20 PM 75.2 °F 53.6 °F 47% 30.09 in 6.2 mi WNW 4.6 mph - N/A   Partly Cloudy
2:50 PM 77.0 °F 53.6 °F 44% 30.09 in 6.2 mi West 5.8 mph - N/A   Partly Cloudy
3:00 PM 76 °F 54 °F 35% 30.10 in 6 mi West 5.8 mph - -   Scattered Clouds
3:20 PM 77.0 °F 55.4 °F 47% 30.06 in 6.2 mi West 6.9 mph - N/A   Partly Cloudy
3:50 PM 78.8 °F 53.6 °F 42% 30.06 in 6.2 mi WNW 5.8 mph - N/A   Partly Cloudy
4:20 PM 78.8 °F 51.8 °F 39% 30.06 in 6.2 mi WNW 5.8 mph - N/A   Partly Cloudy
4:50 PM 80.6 °F 50.0 °F 34% 30.06 in 6.2 mi West 4.6 mph - N/A   Partly Cloudy
5:20 PM 80.6 °F 50.0 °F 34% 30.04 in 6.2 mi West 4.6 mph - N/A   Partly Cloudy
5:50 PM 78.8 °F 46.4 °F 32% 30.04 in - South 10.4 mph - N/A   Clear
6:20 PM 77.0 °F 50.0 °F 39% 30.04 in - South 9.2 mph - N/A   Clear
6:50 PM 75.2 °F 48.2 °F 38% 30.04 in - South 5.8 mph - N/A   Clear
7:20 PM 71.6 °F 50.0 °F 46% 30.04 in - South 4.6 mph - N/A   Clear
7:50 PM 71.6 °F 51.8 °F 50% 30.04 in - SSE 4.6 mph - N/A   Clear
8:20 PM 71.6 °F 51.8 °F 50% 30.04 in - SE 4.6 mph - N/A   Clear
8:50 PM 71.6 °F 53.6 °F 53% 30.04 in - Variable 3.5 mph - N/A   Clear
9:20 PM 69.8 °F 51.8 °F 53% 30.04 in - East 5.8 mph - N/A   Clear
9:50 PM 68.0 °F 53.6 °F 60% 30.04 in - East 6.9 mph - N/A   Clear
10:20 PM 66.2 °F 53.6 °F 64% 30.04 in - ESE 6.9 mph - N/A   Clear
10:50 PM 66.2 °F 53.6 °F 64% 30.04 in - ESE 5.8 mph - N/A   Clear
11:20 PM 66.2 °F 53.6 °F 64% 30.04 in - ESE 5.8 mph - N/A   Clear
11:50 PM 64.4 °F 53.6 °F 68% 30.04 in - East 6.9 mph - N/A   Clear